This demonstration page uses our WeatherBlox Daily Observations layout. Learn more.

Left ArrowRight Arrow

Hourly Observations for October 29, 2021

Temp ( °F °C ) Dew Point ( °F °C ) Humidity (%) Winds ( mph kmh ) Pressure ( in mb ) Visibility ( mi km ) Precip ( " mm )
12:03 am 00:03 Cloudy 57 13.9 55 12.8 93 93 Calm 29.53 1000 7 11 0.00 0.00
12:35 am 00:35 Cloudy with Mist and Fog 56 13.3 55 12.8 97 97 Calm 29.53 1000 5 8 0.00 0.00
12:53 am 00:53 Cloudy with Mist and Fog 56 13.3 55 12.8 97 97 Calm 29.51 999 6 10 0.00 0.00
1:26 am 01:26 Cloudy with Mist and Fog 56 13.3 55 12.8 97 97 Calm 29.51 999 6 10 0.00 0.00
1:53 am 01:53 Cloudy with Mist and Fog 56 13.3 55 12.8 97 97 Calm 29.50 999 4 6 0.00 0.00
2:26 am 02:26 Cloudy with Light Rain 56 13.3 55 12.8 97 97 SSW 5 7 29.51 999 8 13 0.00 0.00
2:53 am 02:53 Cloudy 56 13.3 55 12.8 97 97 Calm 29.49 999 7 11 0.00 0.00
3:11 am 03:11 Cloudy 56 13.3 53 11.7 90 90 WSW 6 9 29.50 999 10 16 0.00 0.00
3:42 am 03:42 Cloudy 56 13.3 53 11.7 90 90 Calm 29.49 999 10 16 0.00 0.00
3:53 am 03:53 Cloudy 56 13.3 53 11.7 90 90 SW 3 6 29.48 998 10 16 0.00 0.00
4:30 am 04:30 Cloudy 55 12.8 52 11.1 90 90 S 5 7 29.50 999 10 16 0.00 0.00
4:51 am 04:51 Cloudy 55 13 52 11 88 88 SSW 6 9 29.50 999 10 16 0.00 0.00
4:53 am 04:53 Cloudy 55 12.8 52 11.1 90 90 SSW 6 9 29.49 999 10 16 0.00 0.00
5:29 am 05:29 Cloudy 54 12.2 51 10.6 90 90 SSW 5 7 29.50 999 10 16 0.00 0.00
5:37 am 05:37 Cloudy 54 12.2 51 10.6 90 90 SSW 3 6 29.50 999 10 16 0.00 0.00
5:53 am 05:53 Cloudy 54 12.2 51 10.6 90 90 SSW 6 9 29.49 999 10 16 0.00 0.00
6:05 am 06:05 Cloudy 54 12.2 51 10.6 90 90 S 5 7 29.50 999 10 16 0.00 0.00
6:40 am 06:40 Cloudy 54 12.2 51 10.6 90 90 SSW 5 7 29.49 999 10 16 0.00 0.00
6:53 am 06:53 Cloudy 54 12.2 51 10.6 90 90 SSW 6 9 29.48 998 10 16 0.00 0.00
7:53 am 07:53 Cloudy with Light Rain 53 11.7 50 10 89 89 SW 9 15 29.49 999 10 16 0.00 0.00
8:09 am 08:09 Cloudy 53 11.7 51 10.6 93 93 SSW 6 9 29.51 999 10 16 0.00 0.00
8:16 am 08:16 Cloudy 53 11.7 51 10.6 93 93 SW 6 9 29.51 999 10 16 0.00 0.00
8:25 am 08:25 Cloudy 53 11.7 51 10.6 93 93 SW 6 9 29.51 999 10 16 0.00 0.00
8:53 am 08:53 Cloudy 53 11.7 50 10 89 89 SW 7 11 29.52 1000 9 14 0.00 0.00
9:07 am 09:07 Cloudy with Light Rain 52 11.1 50 10 93 93 SSW 9 15 29.54 1000 5 8 0.00 0.00
9:23 am 09:23 Cloudy 52 11.1 50 10 93 93 SSW 10 17 29.54 1000 10 16 0.01 0.25
9:53 am 09:53 Cloudy 52 11.1 50 10 93 93 SW 7 11 29.53 1000 8 13 0.01 0.25
10:22 am 10:22 Cloudy 52 11.1 50 10 93 93 W 5 7 29.56 1001 10 16 0.00 0.00
10:53 am 10:53 Cloudy 53 11.7 50 10 89 89 SW 10 17 29.55 1001 10 16 0.00 0.00
11:21 am 11:21 Cloudy 54 12.2 49 9.4 83 83 WSW 9 15 29.56 1001 10 16 0.00 0.00
11:32 am 11:32 Cloudy 54 12.2 48 8.9 80 80 WSW 8 13 29.56 1001 10 16 0.00 0.00
11:53 am 11:53 Cloudy 55 12.8 48 8.9 77 77 SW 10 17 29.55 1001 10 16 0.00 0.00
12:20 pm 12:20 Cloudy 56 13.3 47 8.3 72 72 SW 12 19 29.56 1001 10 16 0.00 0.00
12:53 pm 12:53 Cloudy 56 13.3 47 8.3 72 72 WSW 8 13 29.54 1001 10 16 0.00 0.00
1:32 pm 13:32 Cloudy 56 13.3 46 7.8 70 70 SW 8 13 29.55 1001 10 16 0.00 0.00
1:50 pm 13:50 Cloudy 55 13 46 8 72 72 WSW 9 15 29.55 1001 10 16 0.00 0.00
1:53 pm 13:53 Cloudy 55 12.8 48 8.9 77 77 WSW 7 11 29.54 1000 10 16 0.00 0.00
2:53 pm 14:53 Cloudy 54 12.2 49 9.4 83 83 W 8 13 29.54 1000 10 16 0.01 0.25
3:53 pm 15:53 Cloudy 54 12.2 48 8.9 80 80 SW 6 9 29.54 1000 10 16 0.01 0.25
4:53 pm 16:53 Cloudy with Rain 53 11.7 49 9.4 86 86 SW 5 7 29.55 1001 5 8 0.01 0.25
5:53 pm 17:53 Cloudy with Light Rain 51 10.6 49 9.4 92 92 WSW 5 7 29.57 1001 10 16 0.03 0.76
6:12 pm 18:12 Cloudy 51 10.6 49 9.4 92 92 SW 7 11 29.59 1002 10 16 0.00 0.00
6:30 pm 18:30 Cloudy 51 10.6 49 9.4 92 92 SW 6 9 29.59 1002 10 16 0.00 0.00
6:53 pm 18:53 Cloudy with Light Rain 51 10.6 48 8.9 89 89 SW 7 11 29.57 1002 10 16 0.00 0.00
7:12 pm 19:12 Cloudy 51 10.6 48 8.9 89 89 SW 6 9 29.60 1002 10 16 0.00 0.00
7:31 pm 19:31 Cloudy 51 10.6 48 8.9 89 89 WSW 6 9 29.60 1002 9 14 0.00 0.00
7:43 pm 19:43 Cloudy with Light Rain 51 10.6 49 9.4 92 92 SW 5 7 29.60 1002 5 8 0.00 0.00
7:53 pm 19:53 Cloudy with Mist and Fog 50 10 49 9.4 96 96 SSW 8 13 29.59 1002 6 10 0.01 0.25
8:20 pm 20:20 Cloudy 51 10.6 49 9.4 92 92 SW 5 7 29.61 1003 10 16 0.00 0.00
8:53 pm 20:53 Cloudy 51 10.6 49 9.4 92 92 SW 6 9 29.60 1002 10 16 0.00 0.00
9:07 pm 21:07 Cloudy 51 10.6 49 9.4 92 92 SW 8 13 29.62 1003 10 16 0.00 0.00
9:53 pm 21:53 Cloudy with Light Rain 51 10.6 49 9.4 92 92 SSW 6 9 29.61 1003 3 5 0.00 0.00
10:44 pm 22:44 Cloudy with Light Rain 51 10.6 50 10 96 96 Calm 29.64 1004 3 4 0.03 0.76
10:53 pm 22:53 Cloudy with Light Rain 51 10.6 50 10 96 96 SW 5 7 29.62 1003 3 5 0.03 0.76
11:53 pm 23:53 Cloudy with Mist and Fog 51 10.6 50 10 96 96 SW 3 6 29.62 1003 5 8 0.01 0.25

Powered by AerisWeather